When you browse on this site, cookies collect data to enhance your experience and personalize the content and advertising you see.
Visit our Privacy Policy to learn more. By continuing to use the site, you agree to this use of cookies and data.
  • In Romania
  • List of Countries
  • For 7 days
  • Water Temperature
  • Satellite Maps
  • Weather Map
  • Weather Widgets
  • user-avatar
    Login

    Hourly Weather Karyakino

    Today, 21 March, Thursday

    Time Temperature Precipitation Wind Pressure Humidity
    00:00 -2°C° 0 mm 2 mps 751 mmHg 98%
    01:00 -2°C° 0 mm 2 mps 751 mmHg 98%
    02:00 -2°C° 0 mm 2 mps 750 mmHg 97%
    03:00 -1°C° 0 mm 2 mps 750 mmHg 98%
    04:00 -1°C° 0 mm 2 mps 749 mmHg 99%
    05:00 +1°C° 0 mm 2 mps 749 mmHg 99%
    06:00 +1°C° 0 mm 2 mps 749 mmHg 99%
    07:00 +1°C° 0 mm 2 mps 749 mmHg 99%
    08:00 +1°C° 0 mm 2 mps 749 mmHg 99%
    09:00 +1°C° 0 mm 2 mps 748 mmHg 99%
    10:00 +1°C° 0.1 mm 2 mps 748 mmHg 99%
    11:00 +1°C° 0.1 mm 2 mps 748 mmHg 100%
    12:00 +2°C° 0.1 mm 2 mps 748 mmHg 100%
    13:00 +2°C° 0.1 mm 2 mps 748 mmHg 100%
    14:00 +1°C° 0.1 mm 2 mps 748 mmHg 100%
    15:00 +1°C° 0 mm 2 mps 748 mmHg 100%
    16:00 +1°C° 0 mm 2 mps 747 mmHg 99%
    17:00 +1°C° 0 mm 2 mps 747 mmHg 99%
    18:00 +1°C° 0 mm 2 mps 747 mmHg 98%
    19:00 +1°C° 0 mm 2 mps 747 mmHg 98%
    20:00 +1°C° 0 mm 2 mps 748 mmHg 97%
    21:00 -1°C° 0 mm 3 mps 748 mmHg 97%
    22:00 -1°C° 0 mm 3 mps 747 mmHg 96%
    23:00 -1°C° 0 mm 2 mps 747 mmHg 96%

    Tomorrow, 22 March, Friday

    Time Temperature Precipitation Wind Pressure Humidity
    00:00 -2°C° 0 mm 2 mps 747 mmHg 95%
    01:00 -2°C° 0 mm 2 mps 747 mmHg 95%
    02:00 -3°C° 0 mm 2 mps 747 mmHg 94%
    03:00 -3°C° 0 mm 2 mps 747 mmHg 94%
    04:00 -4°C° 0 mm 2 mps 747 mmHg 94%
    05:00 -4°C° 0 mm 2 mps 747 mmHg 93%
    06:00 -4°C° 0 mm 2 mps 746 mmHg 93%
    07:00 -3°C° 0 mm 2 mps 746 mmHg 92%
    08:00 -2°C° 0 mm 2 mps 746 mmHg 91%
    09:00 -2°C° 0 mm 2 mps 746 mmHg 90%
    10:00 -1°C° 0 mm 2 mps 746 mmHg 92%
    11:00 -1°C° 0 mm 2 mps 746 mmHg 95%
    12:00 +1°C° 0 mm 1 mps 745 mmHg 98%
    13:00 -1°C° 0 mm 2 mps 745 mmHg 98%
    14:00 -1°C° 0 mm 2 mps 744 mmHg 98%
    15:00 -1°C° 0 mm 2 mps 744 mmHg 98%
    16:00 -1°C° 0.1 mm 2 mps 744 mmHg 96%
    17:00 -1°C° 0.1 mm 2 mps 744 mmHg 94%
    18:00 -2°C° 0.1 mm 2 mps 743 mmHg 92%
    19:00 -2°C° 0 mm 2 mps 743 mmHg 92%
    20:00 -2°C° 0 mm 2 mps 743 mmHg 92%
    21:00 -3°C° 0 mm 2 mps 742 mmHg 93%
    22:00 -3°C° 0 mm 2 mps 742 mmHg 92%
    23:00 -4°C° 0 mm 2 mps 742 mmHg 91%

    Day after tomorrow, 23 March, Saturday

    Time Temperature Precipitation Wind Pressure Humidity
    00:00 -5°C° 0 mm 2 mps 741 mmHg 90%
    01:00 -5°C° 0 mm 3 mps 741 mmHg 91%
    02:00 -5°C° 0 mm 3 mps 741 mmHg 91%
    03:00 -4°C° 0 mm 3 mps 741 mmHg 92%
    04:00 -5°C° 0 mm 4 mps 741 mmHg 92%
    05:00 -5°C° 0 mm 4 mps 741 mmHg 93%
    06:00 -5°C° 0 mm 4 mps 741 mmHg 93%
    07:00 -5°C° 0 mm 4 mps 741 mmHg 93%
    08:00 -4°C° 0 mm 4 mps 742 mmHg 92%
    09:00 -4°C° 0 mm 5 mps 742 mmHg 92%
    10:00 -4°C° 0.1 mm 5 mps 743 mmHg 93%
    11:00 -4°C° 0.1 mm 5 mps 743 mmHg 95%
    12:00 -2°C° 0.1 mm 5 mps 743 mmHg 96%
    13:00 -2°C° 0.4 mm 5 mps 743 mmHg 95%
    14:00 -2°C° 0.4 mm 5 mps 743 mmHg 95%
    15:00 -2°C° 0.4 mm 5 mps 743 mmHg 94%
    16:00 -2°C° 0.5 mm 5 mps 744 mmHg 94%
    17:00 -2°C° 0.5 mm 5 mps 744 mmHg 94%
    18:00 -2°C° 0.5 mm 5 mps 744 mmHg 94%
    19:00 -2°C° 0.6 mm 5 mps 745 mmHg 95%
    20:00 -2°C° 0.6 mm 4 mps 745 mmHg 95%
    21:00 -2°C° 0.6 mm 4 mps 745 mmHg 96%
    22:00 -2°C° 0.5 mm 4 mps 746 mmHg 96%
    23:00 -2°C° 0.5 mm 4 mps 746 mmHg 96%

    24 March, Sunday

    Time Temperature Precipitation Wind Pressure Humidity
    00:00 -2°C° 0.5 mm 3 mps 746 mmHg 97%
    01:00 -2°C° 0.1 mm 3 mps 746 mmHg 97%
    02:00 -2°C° 0.1 mm 2 mps 746 mmHg 97%
    03:00 -2°C° 0.1 mm 2 mps 746 mmHg 97%
    04:00 -2°C° 0 mm 2 mps 746 mmHg 97%
    05:00 0°C° 0 mm 1 mps 746 mmHg 97%
    06:00 0°C° 0 mm 1 mps 746 mmHg 97%
    07:00 -1°C° 0 mm 0 mps 746 mmHg 98%
    08:00 0°C° 0 mm 0 mps 746 mmHg 99%
    09:00 0°C° 0 mm 0 mps 746 mmHg 99%
    10:00 +1°C° 0 mm 1 mps 746 mmHg 99%
    11:00 +1°C° 0 mm 1 mps 746 mmHg 99%
    12:00 -1°C° 0 mm 2 mps 746 mmHg 99%
    13:00 -1°C° 0 mm 2 mps 746 mmHg 99%
    14:00 -1°C° 0 mm 2 mps 746 mmHg 99%
    15:00 -1°C° 0 mm 3 mps 745 mmHg 99%
    16:00 -1°C° 0 mm 3 mps 745 mmHg 98%
    17:00 -1°C° 0 mm 3 mps 745 mmHg 97%
    18:00 -2°C° 0 mm 2 mps 745 mmHg 95%
    19:00 -2°C° 0 mm 2 mps 745 mmHg 95%
    20:00 -2°C° 0 mm 2 mps 744 mmHg 96%
    21:00 -3°C° 0 mm 2 mps 744 mmHg 96%
    22:00 -4°C° 0 mm 3 mps 744 mmHg 96%
    23:00 -4°C° 0 mm 3 mps 743 mmHg 96%

    25 March, Monday

    Time Temperature Precipitation Wind Pressure Humidity
    00:00 -4°C° 0 mm 3 mps 743 mmHg 97%
    01:00 -4°C° 0 mm 3 mps 742 mmHg 97%
    02:00 -4°C° 0 mm 3 mps 742 mmHg 97%
    03:00 -4°C° 0 mm 3 mps 742 mmHg 97%
    04:00 -4°C° 0 mm 3 mps 741 mmHg 97%
    05:00 -4°C° 0 mm 3 mps 741 mmHg 96%
    06:00 -4°C° 0 mm 3 mps 740 mmHg 96%
    07:00 -4°C° 0 mm 3 mps 740 mmHg 96%
    08:00 -2°C° 0 mm 3 mps 740 mmHg 96%
    09:00 -2°C° 0 mm 3 mps 740 mmHg 95%
    10:00 -2°C° 0 mm 4 mps 740 mmHg 97%
    11:00 -2°C° 0 mm 4 mps 740 mmHg 98%
    12:00 -2°C° 0 mm 4 mps 739 mmHg 99%
    13:00 -2°C° 0.1 mm 4 mps 739 mmHg 99%
    14:00 -2°C° 0.1 mm 4 mps 739 mmHg 99%
    15:00 -1°C° 0.1 mm 4 mps 739 mmHg 99%
    16:00 -2°C° 0 mm 4 mps 740 mmHg 96%
    17:00 -2°C° 0 mm 4 mps 740 mmHg 94%
    18:00 -1°C° 0 mm 3 mps 740 mmHg 91%
    19:00 -2°C° 0 mm 3 mps 741 mmHg 91%
    20:00 -4°C° 0 mm 3 mps 741 mmHg 90%
    21:00 -4°C° 0 mm 3 mps 742 mmHg 90%
    22:00 -5°C° 0 mm 3 mps 742 mmHg 91%
    23:00 -6°C° 0 mm 3 mps 742 mmHg 91%

    26 March, Tuesday

    Time Temperature Precipitation Wind Pressure Humidity
    00:00 -6°C° 0 mm 3 mps 742 mmHg 92%
    01:00 -7°C° 0 mm 3 mps 743 mmHg 92%
    02:00 -7°C° 0 mm 3 mps 743 mmHg 92%
    03:00 -7°C° 0 mm 3 mps 743 mmHg 92%
    04:00 -8°C° 0 mm 3 mps 744 mmHg 92%
    05:00 -8°C° 0 mm 3 mps 744 mmHg 93%
    06:00 -8°C° 0 mm 3 mps 745 mmHg 93%
    07:00 -7°C° 0 mm 3 mps 745 mmHg 92%
    08:00 -6°C° 0 mm 3 mps 746 mmHg 92%
    09:00 -5°C° 0 mm 3 mps 746 mmHg 92%
    10:00 -4°C° 0 mm 3 mps 746 mmHg 92%
    11:00 -2°C° 0 mm 3 mps 747 mmHg 93%
    12:00 -2°C° 0 mm 3 mps 747 mmHg 94%
    13:00 -1°C° 0 mm 3 mps 747 mmHg 93%
    14:00 -1°C° 0 mm 3 mps 747 mmHg 93%
    15:00 -1°C° 0 mm 3 mps 747 mmHg 93%
    16:00 -2°C° 0 mm 2 mps 747 mmHg 93%
    17:00 -3°C° 0 mm 2 mps 747 mmHg 93%
    18:00 -4°C° 0 mm 2 mps 747 mmHg 93%
    19:00 -4°C° 0 mm 2 mps 747 mmHg 91%
    20:00 -5°C° 0 mm 2 mps 747 mmHg 89%
    21:00 -5°C° 0 mm 2 mps 748 mmHg 88%
    22:00 -6°C° 0 mm 2 mps 748 mmHg 86%
    23:00 -6°C° 0 mm 2 mps 747 mmHg 84%
    Show more